Coldwater, MI

10:56 AM EDT on September 24, 2017 (GMT -0400)
Branch County Memorial

Weather History for KOEB - October, 2014

Change the Weather History Date:

Thursday, October 9, 2014

  Actual Average (KJYM) Record (KJYM)
Temperature  
Mean Temperature 50 °F -  
Max Temperature 61 °F 63 °F 85 °F (1949)
Min Temperature 39 °F 41 °F 21 °F (1989)
Degree Days  
Heating Degree Days 15    
Moisture  
Dew Point 37 °F    
Average Humidity 67    
Maximum Humidity 93    
Minimum Humidity 34    
Precipitation  
Precipitation 0.00 in - - ()
Sea Level Pressure  
Sea Level Pressure 30.06 in    
Wind  
Wind Speed 4 mph (WNW)    
Max Wind Speed 14 mph    
Max Gust Speed 20 mph    
Visibility 10 miles    
Events      
Averages and records for this station are not official NWS values.
T = Trace of Precipitation, MM = Missing Value Source: NWS Daily Summary

Daily Weather History Graph

Daily Weather History Graph

Search for Another Location

Airport or City:

Trip Planner

Search our weather history database for the weather conditions in past years. The results will help you decide how hot, cold, wet, or windy it might be!

Date:

Astronomy

Oct. 09, 2014 Rise Set
Actual Time 7:45 AM EDT 7:08 PM EDT
Civil Twilight 7:17 AM EDT 7:36 PM EDT
Nautical Twilight 6:45 AM EDT 8:08 PM EDT
Astronomical Twilight 6:13 AM EDT 8:40 PM EDT
Moon 8:02 PM EDT (10/9) 9:01 AM EDT (10/9)
Length of Visible Light 12h 18m
Length of Day
11h 22m
Full, 98% of the Moon is Illuminated
Oct 9
Full
Oct 15
Last Quarter
Oct 23
New
Oct 30
First Quarter
Nov 6
Full

Hourly Weather History & Observations

Time (EDT) Temp. Windchill Dew Point Humidity Pressure Visibility Wind Dir Wind Speed Gust Speed Precip Events Conditions
12:14 AM 47.7 °F - 36.9 °F 66% 30.00 in 10.0 mi NNW 3.5 mph - N/A   Clear
12:34 AM 46.6 °F - 37.2 °F 70% 30.00 in 10.0 mi Calm Calm - N/A   Clear
12:55 AM 47.5 °F - 37.2 °F 68% 29.99 in 10.0 mi SW 3.5 mph - N/A   Clear
1:14 AM 46.4 °F 45.2 °F 37.4 °F 71% 29.99 in 10.0 mi SW 3.5 mph - N/A   Clear
1:34 AM 46.8 °F - 37.4 °F 70% 29.99 in 10.0 mi WSW 3.5 mph - N/A   Clear
1:55 AM 46.2 °F 45.0 °F 37.8 °F 72% 29.99 in 10.0 mi WSW 3.5 mph - N/A   Clear
2:14 AM 43.7 °F 42.1 °F 37.6 °F 79% 29.99 in 10.0 mi WSW 3.5 mph - N/A   Clear
2:34 AM 42.6 °F 39.9 °F 37.4 °F 82% 30.00 in 10.0 mi WSW 4.6 mph - N/A   Clear
2:54 AM 43.9 °F 42.3 °F 38.3 °F 81% 30.00 in 10.0 mi WSW 3.5 mph - N/A   Clear
3:14 AM 44.2 °F 42.7 °F 39.0 °F 82% 30.01 in 10.0 mi NNW 3.5 mph - N/A   Clear
3:34 AM 44.8 °F - 39.4 °F 81% 30.01 in 10.0 mi Calm Calm - N/A   Clear
3:54 AM 44.8 °F - 39.4 °F 81% 30.01 in 10.0 mi North - - N/A   Clear
4:14 AM 43.7 °F - 39.2 °F 84% 30.01 in 10.0 mi North - - N/A   Clear
4:34 AM 43.2 °F - 39.9 °F 88% 30.02 in 10.0 mi North - - N/A   Clear
4:54 AM 43.0 °F - 39.9 °F 89% 30.02 in 10.0 mi Calm Calm - N/A   Clear
5:14 AM 42.8 °F - 39.6 °F 88% 30.03 in 10.0 mi Calm Calm - N/A   Clear
5:34 AM 42.3 °F - 39.9 °F 91% 30.03 in 10.0 mi Calm Calm - N/A   Clear
5:54 AM 42.3 °F - 40.1 °F 92% 30.03 in 10.0 mi North - - N/A   Clear
6:15 AM 42.8 °F - 40.8 °F 93% 30.04 in 10.0 mi Calm Calm - N/A   Clear
6:34 AM 42.8 °F - 41.0 °F 93% 30.03 in 10.0 mi North - - N/A   Clear
6:54 AM 42.8 °F - 41.0 °F 93% 30.04 in 10.0 mi Calm Calm - N/A   Clear
7:15 AM 42.8 °F - 40.6 °F 92% 30.03 in 10.0 mi North - - N/A   Clear
7:34 AM 43.0 °F - 40.6 °F 91% 30.03 in 10.0 mi North - - N/A   Clear
7:54 AM 42.8 °F - 40.5 °F 91% 30.04 in 10.0 mi Calm Calm - N/A   Clear
8:15 AM 42.4 °F - 40.6 °F 93% 30.04 in 10.0 mi North - - N/A   Clear
8:34 AM 42.8 °F - 40.6 °F 92% 30.05 in 10.0 mi North - - N/A   Clear
8:54 AM 44.8 °F - 42.8 °F 93% 30.06 in 10.0 mi Calm Calm - N/A   Clear
9:14 AM 46.6 °F - 43.0 °F 87% 30.07 in 10.0 mi West 3.5 mph - N/A   Clear
9:34 AM 46.9 °F - 44.1 °F 90% 30.08 in 10.0 mi West 3.5 mph - N/A   Clear
9:55 AM 47.8 °F - 43.9 °F 86% 30.09 in 10.0 mi West 4.6 mph - N/A   Clear
10:14 AM 49.1 °F - 43.5 °F 81% 30.09 in 10.0 mi Calm Calm - N/A   Clear
10:34 AM 50.9 °F - 42.8 °F 74% 30.11 in 10.0 mi WNW 5.8 mph - N/A   Clear
10:54 AM 52.3 °F - 42.4 °F 69% 30.11 in 10.0 mi WNW 5.8 mph - N/A   Clear
11:14 AM 52.0 °F - 41.7 °F 68% 30.11 in 10.0 mi WNW 5.8 mph - N/A   Clear
11:34 AM 53.2 °F - 40.3 °F 61% 30.11 in 10.0 mi NW 6.9 mph - N/A   Clear
11:54 AM 53.2 °F - 39.7 °F 60% 30.11 in 10.0 mi West 8.1 mph - N/A   Clear
12:14 PM 55.0 °F - 40.1 °F 57% 30.11 in 10.0 mi NW 10.4 mph 16.1 mph N/A   Clear
12:34 PM 57.0 °F - 39.2 °F 51% 30.11 in 10.0 mi WNW 12.7 mph 17.3 mph N/A   Clear
12:54 PM 57.2 °F - 38.7 °F 50% 30.10 in 10.0 mi West 13.8 mph - N/A   Clear
1:14 PM 57.4 °F - 39.2 °F 51% 30.10 in 10.0 mi WNW 10.4 mph 17.3 mph N/A   Clear
1:34 PM 58.3 °F - 37.9 °F 47% 30.09 in 10.0 mi NW 10.4 mph 16.1 mph N/A   Clear
1:54 PM 59.0 °F - 37.4 °F 45% 30.08 in 10.0 mi West 12.7 mph 19.6 mph N/A   Clear
2:14 PM 59.4 °F - 35.4 °F 41% 30.08 in 10.0 mi West 11.5 mph 17.3 mph N/A   Clear
2:35 PM 60.1 °F - 34.2 °F 38% 30.08 in 10.0 mi West 8.1 mph 18.4 mph N/A   Clear
2:54 PM 60.3 °F - 34.0 °F 37% 30.07 in 10.0 mi WNW 12.7 mph 17.3 mph N/A   Clear
3:14 PM 60.6 °F - 33.3 °F 36% 30.06 in 10.0 mi West 6.9 mph 16.1 mph N/A   Clear
3:35 PM 60.8 °F - 32.4 °F 34% 30.06 in 10.0 mi West 8.1 mph - N/A   Clear
3:54 PM 61.2 °F - 33.8 °F 36% 30.06 in 10.0 mi West 5.8 mph - N/A   Clear
4:14 PM 60.8 °F - 32.7 °F 35% 30.06 in 10.0 mi WNW 10.4 mph - N/A   Clear
4:34 PM 60.8 °F - 33.1 °F 35% 30.06 in 10.0 mi West 8.1 mph - N/A   Clear
4:54 PM 60.1 °F - 31.8 °F 34% 30.06 in 10.0 mi WNW 3.5 mph - N/A   Clear
5:14 PM 59.9 °F - 32.4 °F 35% 30.06 in 10.0 mi West 8.1 mph - N/A   Clear
5:34 PM 59.4 °F - 31.3 °F 35% 30.06 in 10.0 mi WNW 9.2 mph - N/A   Clear
5:55 PM 58.1 °F - 30.4 °F 35% 30.06 in 10.0 mi NW 6.9 mph - N/A   Clear
6:14 PM 57.4 °F - 30.4 °F 36% 30.07 in 10.0 mi WNW 9.2 mph - N/A   Clear
6:34 PM 56.1 °F - 30.9 °F 38% 30.07 in 10.0 mi WNW 5.8 mph - N/A   Clear
6:54 PM 54.9 °F - 32.2 °F 42% 30.08 in 10.0 mi NW 5.8 mph - N/A   Clear
7:14 PM 52.0 °F - 32.9 °F 48% 30.08 in 10.0 mi NW 4.6 mph - N/A   Clear
7:34 PM 50.5 °F - 32.5 °F 50% 30.08 in 10.0 mi NW 3.5 mph - N/A   Clear
7:54 PM 47.5 °F - 33.8 °F 59% 30.08 in 10.0 mi WNW 3.5 mph - N/A   Clear
8:14 PM 47.8 °F - 33.4 °F 57% 30.09 in 10.0 mi West 3.5 mph - N/A   Clear
8:34 PM 47.1 °F - 33.4 °F 59% 30.10 in 10.0 mi WNW 3.5 mph - N/A   Clear
8:54 PM 46.6 °F - 34.2 °F 62% 30.10 in 10.0 mi NW 3.5 mph - N/A   Clear
9:14 PM 46.2 °F - 34.3 °F 63% 30.10 in 10.0 mi Calm Calm - N/A   Clear
9:34 PM 45.3 °F - 34.7 °F 66% 30.10 in 10.0 mi Calm Calm - N/A   Clear
9:54 PM 44.2 °F - 34.7 °F 69% 30.10 in 10.0 mi Calm Calm - N/A   Clear
10:14 PM 43.7 °F - 35.1 °F 72% 30.11 in 10.0 mi Calm Calm - N/A   Clear
10:35 PM 44.4 °F - 35.6 °F 71% 30.12 in 10.0 mi Calm Calm - N/A   Clear
10:54 PM 39.7 °F - 35.1 °F 83% 30.13 in 10.0 mi Calm Calm - N/A   Clear
11:14 PM 40.8 °F - 35.6 °F 82% 30.12 in 10.0 mi Calm Calm - N/A   Clear
11:35 PM 40.5 °F - 35.8 °F 83% 30.13 in 10.0 mi Calm Calm - N/A   Clear
11:54 PM 41.2 °F - 36.0 °F 82% 30.13 in 10.0 mi Calm Calm - N/A   Clear